This demonstration page uses our WeatherBlox Daily Observations layout. Learn more.

Left ArrowRight Arrow

39.95238, -75.16362

Hourly Observations for January 17, 2022

Temp ( °F °C ) Dew Point ( °F °C ) Humidity (%) Winds ( mph kmh ) Pressure ( in mb ) Visibility ( mi km ) Precip ( " mm )
12:45 am 00:45 Cloudy with Light Rain 48 8.9 44 6.7 86 86 ENE 22 35 29.30 992 2 3 0.18 4.57
12:54 am 00:54 Cloudy with Rain 48 8.9 44 6.7 86 86 ENE 21 33 29.28 992 2 3 0.22 5.59
1:05 am 01:05 Cloudy with Rain 48 8.9 45 7.2 89 89 E 24 39 29.26 991 1 2 0.05 1.27
1:38 am 01:38 Cloudy with Heavy Rain 50 10 47 8.3 89 89 ESE 25 41 29.25 991 2 3 0.25 6.35
1:54 am 01:54 Cloudy with Rain 50 10 47 8.3 89 89 E 26 43 29.17 988 2 3 0.36 9.14
1:59 am 01:59 Cloudy with Light Rain 50 10 46 7.8 86 86 E 28 44 29.14 987 5 8 0.00 0.00
2:03 am 02:03 Cloudy with Light Rain 50 10 46 7.8 86 86 ENE 28 44 29.11 986 7 11 0.00 0.00
2:11 am 02:11 Cloudy 50 10 47 8.3 89 89 ENE 21 33 29.12 986 10 16 0.01 0.25
2:54 am 02:54 Cloudy 50 10 45 7.2 83 83 SE 9 15 29.14 987 10 16 0.02 0.51
3:06 am 03:06 Cloudy with Light Rain 51 10.6 46 7.8 83 83 SE 14 22 29.13 986 10 16 0.00 0.00
3:36 am 03:36 Cloudy 50 10 44 6.7 80 80 S 13 20 29.14 987 10 16 0.00 0.00
3:54 am 03:54 Cloudy 48 8.9 39 3.9 71 71 S 14 22 29.13 987 10 16 0.00 0.00
4:54 am 04:54 Cloudy 44 6.7 35 1.7 71 71 S 15 24 29.09 985 10 16 0.00 0.00
5:54 am 05:54 Cloudy with Light Rain 42 5.6 33 0.6 71 71 SSW 18 30 29.10 986 10 16 0.00 0.00
6:18 am 06:18 Cloudy with Light Rain 41 5 34 1.1 76 76 SSW 17 28 29.12 986 10 16 0.01 0.25
6:54 am 06:54 Cloudy with Light Rain 39 3.9 34 1.1 82 82 SSW 15 24 29.12 986 10 16 0.02 0.51
7:54 am 07:54 Cloudy with Light Rain/Snow 38 3.3 32 0 79 79 SSW 16 26 29.13 987 10 16 0.02 0.51
7:57 am 07:57 Cloudy with Light Rain/Snow 38 3.3 32 0 79 79 SSW 20 31 29.14 987 6 10 0.00 0.00
8:03 am 08:03 Cloudy with Light Rain 38 3.3 32 0 79 79 SSW 18 30 29.14 987 7 11 0.00 0.00
8:54 am 08:54 Cloudy with Light Rain 38 3.3 32 0 79 79 SSW 15 24 29.14 987 8 13 0.00 0.00
9:09 am 09:09 Cloudy 37 2.8 32 0 82 82 SW 18 30 29.14 987 10 16 0.00 0.00
9:54 am 09:54 Cloudy 37 2.8 31 -0.6 79 79 SW 21 33 29.14 987 10 16 0.00 0.00
10:36 am 10:36 Cloudy 38 3.3 30 -1.1 73 73 WSW 20 31 29.15 987 10 16 0.00 0.00
10:54 am 10:54 Cloudy 38 3.3 30 -1.1 73 73 WSW 24 39 29.17 988 10 16 0.00 0.00
11:54 am 11:54 Cloudy 39 3.9 28 -2.2 65 65 SW 24 39 29.16 988 10 16 0.00 0.00
12:10 pm 12:10 Cloudy 39 3.9 28 -2.2 65 65 SW 22 35 29.19 989 10 16 0.00 0.00
12:54 pm 12:54 Cloudy 39 3.9 27 -2.8 62 62 WSW 22 35 29.17 988 10 16 0.00 0.00
1:54 pm 13:54 Cloudy 40 4.4 26 -3.3 58 58 WSW 28 44 29.19 989 10 16 0.00 0.00
2:51 pm 14:51 Windy with Snow Likely 37 3 27 -3 65 65 SW 25 41 29.24 990 10 16 0.00 0.00
2:54 pm 14:54 Windy with Snow Likely 38 3.3 27 -2.8 65 65 WSW 24 39 29.23 990 9 14 0.00 0.00
3:24 pm 15:24 Cloudy 38 3.3 27 -2.8 65 65 SW 17 28 29.25 991 10 16 0.00 0.00
3:50 pm 15:50 Cloudy with Light Snow 37 3 27 -3 65 65 WSW 16 26 29.26 991 8 13 0.00 0.00
3:54 pm 15:54 Windy with Snow Likely 38 3.3 27 -2.8 65 65 WSW 23 37 29.26 991 7 11 0.00 0.00
4:23 pm 16:23 Cloudy 37 2.8 27 -2.8 67 67 WSW 21 33 29.28 992 10 16 0.00 0.00
4:54 pm 16:54 Cloudy 38 3.3 23 -5 55 55 W 26 43 29.30 992 10 16 0.00 0.00
5:54 pm 17:54 Cloudy 38 3.3 22 -5.6 52 52 W 25 41 29.35 994 10 16 0.00 0.00
6:54 pm 18:54 Cloudy 37 2.8 22 -5.6 54 54 W 24 39 29.39 995 10 16 0.00 0.00
7:54 pm 19:54 Cloudy 35 1.7 22 -5.6 59 59 W 26 43 29.43 997 10 16 0.00 0.00
8:54 pm 20:54 Mostly Cloudy 35 1.7 22 -5.6 59 59 WNW 21 33 29.46 998 10 16 0.00 0.00
9:54 pm 21:54 Cloudy 36 2.2 22 -5.6 57 57 W 20 31 29.49 999 10 16 0.00 0.00
10:54 pm 22:54 Mostly Cloudy 36 2.2 21 -6.1 55 55 W 16 26 29.53 1000 10 16 0.00 0.00
11:54 pm 23:54 Mostly Cloudy 37 2.8 18 -7.8 46 46 WNW 20 31 29.57 1002 10 16 0.00 0.00

Powered by AerisWeather